TimeCST,TemperatureF,Dew PointF,Humidity,Sea Level PressureIn,VisibilityMPH,Wind Direction,Wind SpeedMPH,Gust SpeedMPH,PrecipitationIn,Events,Conditions,WindDirDegrees,DateUTC
12:55 AM,46.0,43.0,89,30.22,10.0,ESE,3.5,-,N/A,,Clear,120,2013-12-19 06:55:00
2:55 AM,48.9,46.0,90,30.20,10.0,ESE,3.5,-,N/A,,Partly Cloudy,120,2013-12-19 08:55:00
3:55 AM,50.0,48.0,93,30.19,9.0,ESE,3.5,-,N/A,,Clear,120,2013-12-19 09:55:00
4:55 AM,55.0,51.1,86,30.19,10.0,SE,4.6,-,N/A,,Scattered Clouds,130,2013-12-19 10:55:00
5:55 AM,55.9,52.0,87,30.19,10.0,ESE,4.6,-,N/A,,Scattered Clouds,120,2013-12-19 11:55:00
6:11 AM,55.4,51.8,88,30.19,7.0,ESE,4.6,-,N/A,,Mostly Cloudy,120,2013-12-19 12:11:00
6:55 AM,54.0,51.1,90,30.19,7.0,East,3.5,-,N/A,,Mostly Cloudy,100,2013-12-19 12:55:00
7:55 AM,57.9,54.0,87,30.20,8.0,ESE,3.5,-,N/A,,Mostly Cloudy,110,2013-12-19 13:55:00
8:55 AM,63.0,55.9,78,30.21,10.0,SE,8.1,-,N/A,,Mostly Cloudy,130,2013-12-19 14:55:00
9:55 AM,66.9,57.0,70,30.21,10.0,SE,6.9,-,N/A,,Mostly Cloudy,130,2013-12-19 15:55:00
10:55 AM,70.0,57.0,63,30.20,10.0,SE,9.2,-,N/A,,Mostly Cloudy,140,2013-12-19 16:55:00
11:55 AM,73.0,57.0,57,30.16,10.0,SE,10.4,-,N/A,,Mostly Cloudy,130,2013-12-19 17:55:00
12:55 PM,75.0,55.0,50,30.13,10.0,South,16.1,23.0,N/A,,Mostly Cloudy,170,2013-12-19 18:55:00
1:55 PM,73.0,55.0,53,30.11,10.0,South,16.1,-,N/A,,Mostly Cloudy,180,2013-12-19 19:55:00
2:55 PM,73.0,55.0,53,30.10,10.0,SSE,13.8,-,N/A,,Mostly Cloudy,160,2013-12-19 20:55:00
3:55 PM,71.1,55.0,57,30.10,10.0,SSE,12.7,-,N/A,,Mostly Cloudy,160,2013-12-19 21:55:00
4:55 PM,69.1,55.9,63,30.09,10.0,SE,6.9,-,N/A,,Mostly Cloudy,130,2013-12-19 22:55:00
5:55 PM,64.9,57.0,75,30.09,10.0,ESE,6.9,-,N/A,,Mostly Cloudy,120,2013-12-19 23:55:00
6:55 PM,64.9,57.0,75,30.10,10.0,SE,8.1,-,N/A,,Mostly Cloudy,140,2013-12-20 00:55:00
7:55 PM,64.9,57.0,75,30.11,10.0,SE,6.9,-,N/A,,Mostly Cloudy,140,2013-12-20 01:55:00
8:55 PM,64.0,57.0,78,30.10,10.0,SE,5.8,-,N/A,,Overcast,140,2013-12-20 02:55:00
9:55 PM,64.0,57.0,78,30.09,10.0,SE,4.6,-,N/A,,Overcast,140,2013-12-20 03:55:00
10:55 PM,64.9,57.9,78,30.08,10.0,SE,6.9,-,N/A,,Overcast,140,2013-12-20 04:55:00
11:55 PM,66.0,57.9,75,30.05,10.0,SSE,6.9,-,N/A,,Overcast,150,2013-12-20 05:55:00